SWARM B

Last updated on Thu Oct 30 2025 00:03:36 GMT+0000 (Coordinated Universal Time)

1 39451U 13067A 25302.55336760 .00005735 00000+0 21869-3 0 9994 2 39451 87.7448 52.2348 0002391 103.3015 256.8499 15.26486311648035
UTC large
Height (km)
Speed (km/s)
/
Latitude / Longitude
Inclination (degrees)
Orbital Period (minutes)
Azimuth
Elevation
Range (km)
Doppler Factor

Next 0 passes for location: London (51.5072 / 0.1276)

Sorry there are no passes over London.